Flag for Poland Weather past 2 weeks in Gdynia, Poland

Now
66 °F

Passing clouds.


Feels Like: 66 °F
Forecast: 53 / 76 °F
Wind: 7 mph from Southwest

Location: Gdansk-Rebiechowo

Current Time: Aug 1, 2015 at 4:17:08 PM

Latest Report: Aug 1, 2015 at 3:30 PM


Visibility: N/A

Pressure: 30.12 "Hg

Humidity: 46%

Dew point: 45 °F

Location of GdyniaLocation

Historic Weather in Gdynia — Graph

°F

Gdynia temperature yesterday

Maximum temperature yesterday: 61 °F (at 5:30 PM)
Minimum temperature yesterday: 50 °F (at 11:30 PM)
Average temperature yesterday: 56 °F

Past Weeks' High & Low Weather Summary

 TemperatureHumidityPressure
High79 °F (Jul 21, 4:30 PM)100% (Jul 19, 5:30 PM)30.12 "Hg (Jul 19, 5:30 PM)
Low48 °F (Jul 27, 4:30 AM)20% (Jul 17, 3:30 PM)29.53 "Hg (Jul 28, 3:30 AM)
Average61 °F76%29.82 "Hg
* Reported Jul 17 3:00 PM — Aug 1 3:00 PM, Gdynia, Weather by CustomWeather, © 2015

Note: Actual official high and low records may vary slightly from our data, if they occured in-between our weather recording intervals... More about our weather records

Advertising

Gdynia weather history for previous 24 hours

 ConditionsComfort  
Time TempWeatherWind HumidityBarometerVisibility
3:00 PM
Sat, Aug 1
66 °FPassing clouds.6 mph46%30.12 "HgN/A
2:30 PM64 °FPassing clouds.7 mph46%30.12 "HgN/A
2:00 PM66 °FSunny.6 mph46%30.12 "Hg10 mi
1:30 PM64 °FPassing clouds.7 mph43%30.12 "HgN/A
1:00 PM63 °FPassing clouds.5 mph49%30.12 "HgN/A
12:30 PM63 °FPassing clouds.3 mph56%30.12 "HgN/A
12:00 PM63 °FPassing clouds.6 mph52%30.12 "HgN/A
11:30 AM63 °FPassing clouds.6 mph56%30.12 "HgN/A
11:00 AM59 °FPassing clouds.9 mph59%30.12 "HgN/A
10:30 AM61 °FScattered clouds.10 mph55%30.12 "HgN/A
10:00 AM59 °FScattered clouds.9 mph59%30.09 "HgN/A
9:30 AM59 °FPassing clouds.9 mph68%30.09 "HgN/A
9:00 AM57 °FPassing clouds.8 mph72%30.09 "HgN/A
8:30 AM55 °FPassing clouds.7 mph77%30.09 "HgN/A
8:00 AM54 °FPassing clouds.5 mph82%30.09 "HgN/A
7:30 AM52 °FPassing clouds.5 mph82%30.09 "HgN/A
7:00 AM52 °FPassing clouds.5 mph82%30.07 "HgN/A
6:30 AM50 °FPassing clouds.3 mph88%30.07 "HgN/A
6:00 AM50 °FPassing clouds.5 mph88%30.07 "HgN/A
5:30 AM48 °FPassing clouds.5 mph94%30.07 "HgN/A
5:00 AM48 °FPassing clouds.6 mph94%30.07 "HgN/A
4:30 AM48 °FPassing clouds.5 mph87%30.07 "HgN/A
4:00 AM48 °FPassing clouds.5 mph94%30.07 "HgN/A
3:30 AM48 °FPassing clouds.6 mph94%30.07 "HgN/A
3:00 AM48 °FPassing clouds.6 mph94%30.07 "HgN/A
2:30 AM48 °FPassing clouds.6 mph94%30.07 "HgN/A
2:00 AM48 °FPassing clouds.5 mph94%30.07 "HgN/A
1:30 AM50 °FPassing clouds.6 mph88%30.04 "HgN/A
1:00 AM50 °FPassing clouds.5 mph88%30.04 "HgN/A
12:30 AM50 °FClear.2 mph88%30.04 "Hg10 mi
12:00 AM50 °FClear.2 mph88%30.04 "Hg10 mi
11:30 PM
Fri, Jul 31
50 °FPassing clouds.3 mph94%30.04 "HgN/A
11:00 PM52 °FPassing clouds.3 mph88%30.04 "HgN/A
10:30 PM52 °FPassing clouds.3 mph88%30.04 "HgN/A
10:00 PM52 °FPassing clouds.3 mph88%30.04 "HgN/A
9:30 PM54 °FSunny.3 mph77%30.04 "Hg10 mi
9:00 PM54 °FPassing clouds.6 mph77%30.04 "HgN/A
8:30 PM55 °FPassing clouds.6 mph72%30.01 "HgN/A
8:00 PM57 °FPassing clouds.9 mph67%30.01 "HgN/A
7:30 PM59 °FScattered clouds.13 mph59%30.01 "HgN/A
7:00 PM59 °FScattered clouds.16 mph59%30.01 "HgN/A
6:30 PM59 °FScattered clouds.16 mph63%30.01 "HgN/A
6:00 PM59 °FScattered clouds.17 mph63%29.98 "HgN/A
5:30 PM61 °FScattered clouds.17 mph59%29.98 "HgN/A
5:00 PM59 °FScattered clouds.16 mph68%29.98 "HgN/A
4:30 PM59 °FPartly sunny.15 mph72%29.98 "HgN/A
4:00 PM57 °FPartly sunny.15 mph77%29.98 "HgN/A
Weather by CustomWeather, © 2015

See weather overviewHow to use our weather pages